Flag for Germany Weather past 2 weeks in Neuwied, Rhineland-Palatinate, Germany

Now
64 °F

Scattered clouds.


Feels Like: 64 °F
Forecast: 43 / 76 °F
Wind: 8 mph from Southeast

Location: Buechel


UV Index: 3 (Moderate)

Visibility: N/A


Pressure: 30.09 "Hg

Humidity: 46%

Dew point: 43 °F

Location of NeuwiedLocation

Historic Weather in Neuwied

°F

Neuwied temperature yesterday

Maximum temperature yesterday: 59 °F (at 4:20 PM)
Minimum temperature yesterday: 45 °F (at 1:20 AM)
Average temperature yesterday: 51 °F

Past Weeks' High & Low Weather Summary

 TemperatureHumidityPressure
High64 °F (Apr 23, 1:20 PM)100% (Apr 9, 4:20 AM)30.39 "Hg (Apr 9, 4:20 AM)
Low34 °F (Apr 16, 3:20 AM)27% (Apr 17, 6:20 PM)29.59 "Hg (Apr 21, 3:20 PM)
Average50 °F67%30.03 "Hg
* Reported Apr 8 3:20 PM — Apr 23 3:20 PM, Neuwied, Weather by CustomWeather, © 2014

Note: Actual official high and low records may vary slightly from our data, if they occured in-between our weather recording intervals... More about our weather records

Advertising

Historic Weather Conditions — Data for Previous 24 hours

 ConditionsComfort  
Time TempWeatherWind HumidityBarometerVisibility
3:20 PM
Apr 23
63 °FBroken clouds.9 mph52%30.09 "HgN/A
2:20 PM63 °FScattered clouds.6 mph45%30.09 "HgN/A
1:20 PM64 °FScattered clouds.7 mph46%30.09 "HgN/A
12:20 PM61 °FScattered clouds.8 mph55%30.09 "HgN/A
11:20 AM61 °FScattered clouds.7 mph59%30.09 "HgN/A
10:20 AM59 °FScattered clouds.5 mph63%30.09 "HgN/A
9:20 AM57 °FScattered clouds.3 mph72%30.09 "HgN/A
8:20 AM54 °FScattered clouds.3 mph77%30.07 "HgN/A
7:20 AM48 °FPassing clouds.3 mph87%30.07 "HgN/A
6:20 AM48 °FPassing clouds.2 mph87%30.07 "HgN/A
5:20 AM50 °FPartly cloudy.3 mph82%30.07 "HgN/A
4:20 AM50 °FPassing clouds.5 mph88%30.07 "HgN/A
3:20 AM50 °FCool.5 mph76%30.04 "Hg6 mi
2:20 AM50 °FCool.3 mph71%30.04 "HgN/A
1:20 AM52 °FCool.3 mph67%30.04 "HgN/A
12:20 AM50 °FCool.3 mph71%30.01 "HgN/A
11:20 PM
Apr 22
50 °FCool.3 mph71%30.01 "HgN/A
10:20 PM52 °FPassing clouds.3 mph67%29.98 "HgN/A
9:20 PM52 °FPartly sunny.3 mph72%29.98 "HgN/A
8:20 PM54 °FPartly sunny.5 mph72%29.95 "HgN/A
7:20 PM57 °FBroken clouds.5 mph63%29.95 "HgN/A
6:20 PM57 °FBroken clouds.7 mph63%29.92 "HgN/A
5:20 PM59 °FBroken clouds.8 mph55%29.92 "HgN/A
Weather by CustomWeather, © 2014

See weather overview